Regional Weather Roundup
Issued by NWS

Home | Current Version | Previous Version | Graphics & Text | Print | Product List | Glossary On
Versions: 1 2 3 4 5 6 7 8 9 10 11 12 13 14 15 16 17 18 19 20 21 22 23 24 25 26 27 28 29 30 31 32 33 34 35 36 37 38 39 40 41 42 43 44 45 46 47 48 49 50
000
ASUS43 KBIS 281620
RWRND

NORTH DAKOTA REGIONAL WEATHER ROUNDUP
NATIONAL WEATHER SERVICE BISMARCK ND
1000 AM CST SUN DEC 28 2014

NOTE: "FAIR" INDICATES FEW OR NO CLOUDS BELOW 12,000 FEET WITH NO
SIGNIFICANT WEATHER AND/OR OBSTRUCTIONS TO VISIBILITY.


NDZ001>003-009>011-017-281700-
NORTHWEST NORTH DAKOTA

CITY           SKY/WX    TMP DP  RH WIND       PRES   REMARKS
WILLISTON      CLOUDY    11   5  77 E9        30.13R WCI  -2
MINOT          CLOUDY    -4  -8  83 N6        30.22R FOG     WCI -16
MINOT AFB      CLOUDY    -6  -9  84 N3        30.23R FOG
$$

NDZ018>021-031>035-040>046-281700-
SOUTHWEST NORTH DAKOTA

CITY           SKY/WX    TMP DP  RH WIND       PRES   REMARKS
BISMARCK       CLOUDY    10   6  84 E13       30.17R WCI  -5
DICKINSON      CLOUDY    18  14  84 E13       30.01R WCI   5
GARRISON         N/A      5   1  83 E8        30.15R WCI  -8
HETTINGER ARPT CLOUDY    14  11  87 E8        30.00R WCI   3
$$

NDZ004>008-012>016-024-026-027-054-281700-
NORTHEAST NORTH DAKOTA

CITY           SKY/WX    TMP DP  RH WIND       PRES   REMARKS
GRAND FORKS    SUNNY     -8 -13  78 N7        30.33R WCI -23
GRND FRKS AFB  SUNNY     -6 -11  80 N6        30.33R WCI -19
DEVILS LAKE    CLOUDY    -4 -11  71 NE6       30.25R WCI -16
$$

NDZ022-023-025-028>030-036>039-047>053-281700-
SOUTHEAST NORTH DAKOTA

CITY           SKY/WX    TMP DP  RH WIND       PRES   REMARKS
FARGO          SUNNY      0  -8  69 N14       30.29R WCI -19
JAMESTOWN      CLOUDY     3  -1  83 NE10      30.21R WCI -12
$$



USA.gov is the U.S. government's official web portal to all federal, state and local government web resources and services.